Location: Coni
(44.3833°N, 7.5333°E)
Time: 04:30:48
(UTC+00:00)

Daily predictions for brighter satellites

Satellite Brightness Start Highest point End
(mag) Time Altitude Azimuth Time Altitude Azimuth Time Altitude Azimuth
SL-16 R/B 4.4 00:06:04 14° WNW 00:08:12 16° NW 00:11:43 10° N
Cosmos 1943 Rocket 3.8 00:03:38 10° N 00:08:33 29° NE 00:10:24 24° E
ATLAS 5 CENTAUR R/B 4.2 00:08:35 10° NNW 00:12:12 21° NE 00:16:24 10° E
Cosmos 2344 4.2 00:22:06 10° NW 00:30:33 73° NE 00:42:18 10° SE
USA 215 3.5 00:28:19 10° ENE 00:34:07 54° ESE 00:34:07 54° ESE
Lacrosse 5 4.1 00:35:37 12° WNW 00:39:03 21° NNW 00:42:59 10° NE
Meteor 1-11 Rocket 4.2 00:37:10 10° N 00:42:35 53° ENE 00:42:35 53° ENE
NOSS 0 Rocket 3.9 00:45:55 80° N 00:45:55 80° N 00:51:46 10° NNE
Meteor 2-17 Rocket 4.5 00:57:56 67° ESE 00:58:14 68° E 01:04:16 10° NNE
Cosmos 2237 Rocket 2.2 00:59:39 77° NE 00:59:39 77° NE 01:04:57 10° NNE
Cosmos 1980 3.7 01:02:36 78° N 01:02:36 78° N 01:07:54 10° NNE
IDEFIX/ARIANE 42P 3.0 00:59:00 10° NNE 01:03:55 55° E 01:03:55 55° E
USA 267 3.9 01:02:36 10° ESE 01:08:54 54° NNE 01:15:13 10° NW
CZ-2C R/B 4.4 01:05:01 10° NNE 01:09:48 32° E 01:10:56 29° ESE
Cosmos 1151 Rocket 4.2 01:10:36 39° ENE 01:10:36 39° ENE 01:14:03 10° NNE
CZ-2D R/B 2.7 01:04:47 10° NNE 01:10:02 49° E 01:10:23 48° ESE
COSMOS 2428 3.8 01:13:37 33° WNW 01:13:57 33° NW 01:19:05 10° N
Meteor 2-9 Rocket 4.1 01:11:48 10° N 01:17:17 78° E 01:17:36 74° ESE
Cosmos 1743 Rocket 4.3 01:14:03 10° N 01:17:16 48° N 01:17:16 48° N
Cosmos 2112 Rocket 4.2 01:19:51 64° ESE 01:19:53 64° ESE 01:25:12 10° NNE
Resurs 1-4 Rocket 2.2 01:16:46 10° NNE 01:22:02 65° ESE 01:22:17 64° ESE
Cosmos 2219 Rocket 4.3 01:23:12 14° WNW 01:24:52 16° NW 01:28:11 10° N
Meteor 1-19 Rocket 4.2 01:28:26 71° S 01:29:09 89° E 01:35:14 10° N
FENGYUN 3A 4.5 01:26:17 10° NNE 01:31:28 44° E 01:32:48 37° SE
Cosmos 2278 Rocket 3.3 01:29:07 10° NW 01:32:30 30° WNW 01:32:30 30° WNW
USA 290 4.2 01:37:57 10° N 01:40:17 29° NE 01:40:17 29° NE
Cosmos 1680 Rocket 3.4 01:42:34 69° W 01:42:51 71° WNW 01:48:11 10° NNE
COBE Rocket 3.6 01:38:41 10° N 01:43:14 84° NW 01:43:14 84° NW
Meteor 2-10 4.1 01:38:01 10° NNW 01:43:43 71° W 01:44:15 66° SW
Cosmos 1420 Rocket 3.8 01:38:35 10° NNW 01:43:52 80° WSW 01:44:11 76° SSW
Cosmos 2195 Rocket 4.4 01:44:51 58° SW 01:46:04 75° W 01:52:18 10° N
ADEOS II 2.2 01:41:05 10° NNE 01:46:20 67° ESE 01:47:24 53° SSE
Meteor 1-28 Rocket 3.8 01:49:06 52° ENE 01:49:06 52° ENE 01:52:26 10° N
Nadezhda 4 Rocket 4.4 01:50:48 41° W 01:51:26 43° WNW 01:57:14 10° N
ATLAS 2AS CENTAUR R/B 2.8 01:49:36 48° SW 01:51:57 86° NW 01:59:10 10° NE
Cosmos 1943 Rocket 2.5 01:47:04 10° NW 01:51:51 46° W 01:51:51 46° W
SL-16 R/B 2.2 01:54:58 54° S 01:56:17 77° ESE 02:01:58 10° NNE
ATLAS 5 CENTAUR R/B 2.0 01:51:33 10° NW 01:56:38 88° SW 02:02:56 10° SE
Cosmos 2056 Rocket 3.4 01:52:09 10° NNW 01:57:34 73° WSW 01:58:37 56° S
CZ-2C R/B 2.6 02:00:14 57° SSW 02:01:03 65° WSW 02:06:21 10° NNW
Cosmos 1340 Rocket 2.9 02:01:32 66° NNW 02:01:32 66° NNW 02:05:02 10° N
Meteor 1-27 Rocket 4.1 02:01:01 44° W 02:01:44 47° WNW 02:07:09 10° N
Sich 1 4.4 01:59:04 10° NNW 02:01:28 26° NW 02:01:28 26° NW
GEOS 3 Rocket 3.6 01:58:08 10° SE 02:03:30 88° ENE 02:08:51 10° NW
GP-B 3.1 01:59:43 10° N 02:03:57 60° WNW 02:03:57 60° WNW
SL-16 R/B 2.5 02:00:25 21° SSE 02:04:50 85° ENE 02:11:07 10° NNW
Meteor 1-18 Rocket 4.4 02:03:11 37° S 02:05:31 71° E 02:11:18 10° NNE
Cosmos 1624 Rocket 3.9 02:02:20 10° NNW 02:07:28 60° WSW 02:08:03 56° SW
ALOS 2.7 02:04:07 10° NNE 02:08:42 57° E 02:10:18 37° SSE
NPP 4.2 02:06:13 10° N 02:11:14 41° WNW 02:12:09 37° W
Cosmos 1470 Rocket 4.4 02:07:29 10° N 02:11:48 50° ENE 02:15:02 17° SSE
Cosmos 1340 3.2 02:08:31 10° NNW 02:10:59 44° NNW 02:10:59 44° NNW
NOSS 3-1 (A) 4.4 02:05:07 10° NNW 02:12:26 67° NE 02:21:15 10° SE
Cosmos 1805 3.8 02:10:34 10° NNW 02:13:21 43° NW 02:13:21 43° NW
USA 215 3.7 02:11:24 10° NE 02:17:44 54° NNW 02:21:28 25° W
Intercosmos 25 Rocket 4.0 02:16:58 10° N 02:21:08 90° WNW 02:27:37 11° S
Lacrosse 5 4.2 02:19:37 10° NW 02:23:35 22° NNE 02:27:33 10° ENE
Cosmos 1666 Rocket 3.6 02:20:04 10° NNW 02:24:26 60° W 02:25:08 52° SW
Cosmos 1553 Rocket 3.9 02:19:15 10° N 02:25:29 82° W 02:30:02 19° S
Cosmos 1674 3.9 02:28:15 20° SE 02:29:59 34° E 02:33:08 10° NNE
NOSS 3-1 (C) 4.1 02:22:56 10° NW 02:30:23 64° WSW 02:39:15 10° SSE
ATLAS 3B R/B 3.1 02:29:27 10° NW 02:37:21 84° NE 02:45:07 10° SE
Cosmos 1933 Rocket 4.4 02:34:25 10° N 02:38:39 49° ENE 02:42:50 10° SSE
MINOTAUR IV R/B 4.4 02:35:50 10° NNW 02:40:17 86° WSW 02:44:43 10° SSE
Cosmos 1656 Rocket 3.5 02:36:06 10° NNW 02:41:30 72° WSW 02:46:53 10° SSE
Cosmos 1328 Rocket 3.9 02:41:11 38° WSW 02:42:16 46° WNW 02:46:33 10° N
Cosmos 1626 2.0 02:42:31 49° W 02:42:36 49° WNW 02:45:49 10° N
Cosmos 1470 4.0 02:39:11 10° N 02:42:49 41° ENE 02:46:23 10° SSE
IDEFIX/ARIANE 42P 4.0 02:39:22 10° NNW 02:43:15 22° WNW 02:44:41 19° W
Cosmos 1066 Rocket 4.1 02:40:39 24° SSW 02:44:00 84° W 02:49:37 10° N
Cosmos 2237 Rocket 4.0 02:41:27 14° WNW 02:44:02 19° NW 02:47:58 10° N
Gbstr 26 Del rocket 4.3 02:41:03 10° NW 02:44:57 35° NNE 02:48:28 10° E
ISS -1.9 02:44:09 19° SSE 02:44:57 21° SE 02:47:32 10° E
Cosmos 2369 Rocket 2.1 02:40:20 10° NNW 02:45:57 84° WSW 02:51:32 10° SSE
Cosmos 921 Rocket 4.3 02:48:29 23° W 02:49:26 25° WNW 02:53:06 10° N
CZ-2C R/B 3.9 02:44:44 10° N 02:49:37 38° WNW 02:51:58 26° WSW
CZ-2D R/B 3.4 02:45:22 10° N 02:49:45 26° WNW 02:51:41 21° W
KORONAS-FOTON 4.3 02:47:36 18° SSE 02:50:09 53° E 02:53:42 10° NNE
Cosmos 1975 3.9 02:47:23 10° NNW 02:50:23 26° W 02:50:23 26° W
USA 267 3.3 02:45:34 10° SSE 02:51:54 55° SW 02:58:18 10° WNW
Cosmos 1633 Rocket 3.7 02:50:00 10° NNW 02:53:58 35° W 02:55:02 30° WSW
Cosmos 2297 3.8 02:48:55 10° NNW 02:54:31 54° WSW 03:00:05 10° S
Resurs 1-4 Rocket 3.7 02:57:39 10° NNW 03:01:18 19° WNW 03:03:21 16° W
Cosmos 1766 3.4 03:01:58 10° NNW 03:05:29 43° W 03:07:19 24° SSW
Iridium 51 4.1 03:05:13 29° SW 03:06:35 50° W 03:09:57 10° N
Cosmos 1943 3.2 03:03:44 17° SSW 03:08:14 89° ESE 03:13:59 10° NNE
UNK 4.4 03:10:15 19° SSW 03:12:46 32° W 03:16:56 10° NNW
Cosmos 2263 4.1 03:09:58 10° NNW 03:15:34 67° WSW 03:21:10 10° SSE
Thor Agena Rocket 3.6 03:10:52 10° NNE 03:15:56 79° ESE 03:21:00 10° SSW
USA 307 3.7 03:20:25 10° SSE 03:21:19 12° SE 03:22:17 10° E
CZ-2C R/B 2.5 03:16:33 10° NNE 03:21:45 83° WNW 03:26:49 10° SSW
H-2A R/B 3.7 03:18:42 10° NNE 03:23:20 34° E 03:28:03 10° SSE
USA 306 3.0 03:22:03 16° SSW 03:24:48 51° SE 03:28:15 10° ENE
ADEOS II 3.7 03:21:52 10° NNW 03:25:25 19° WNW 03:28:17 12° W
PAYLOAD A 3.8 03:21:28 10° NNE 03:26:17 86° WNW 03:30:58 10° SSW
Cosmos 883 Rocket 4.4 03:23:30 10° NNW 03:29:34 66° W 03:35:37 10° S
Cosmos 1707 2.8 03:27:10 12° SSW 03:30:23 53° W 03:34:01 10° N
IRS-1D 3.6 03:28:47 10° N 03:33:57 76° WNW 03:39:12 10° SSW
Cosmos 1302 Rocket 4.0 03:28:49 10° NNW 03:34:02 86° WSW 03:39:12 10° SSE
Cosmos 1842 3.9 03:32:03 14° SW 03:34:46 34° WNW 03:38:13 10° N
CZ-4 R/B 4.4 03:30:26 10° N 03:34:47 39° WNW 03:38:49 11° SW
Cosmos 1484 Rocket 4.1 03:32:47 10° NNE 03:36:08 36° E 03:39:27 10° SSE
Lacrosse 5 rocket 3.9 03:34:20 10° SSE 03:36:51 16° ESE 03:39:19 10° E
Cosmos 2266 Rocket 4.4 03:32:17 10° SW 03:37:58 42° WNW 03:43:41 10° N
In-Cosmos 22 4.2 03:33:29 10° S 03:38:59 87° W 03:44:41 10° N
YAOGAN 6 2.7 03:36:10 10° N 03:39:21 47° WNW 03:42:33 10° SSW
Cosmos 1603 3.7 03:34:35 10° SSW 03:40:12 79° WNW 03:45:53 10° NNE
ATLAS 5 CENTAUR R/B 3.7 03:36:57 10° WNW 03:40:18 16° WSW 03:43:58 10° SSW
SL-16 R/B 3.8 03:36:55 10° W 03:41:03 20° NW 03:45:12 10° N
ATLAS 2AS CENTAUR R/B 4.1 03:37:43 10° W 03:43:50 28° NNW 03:49:45 10° NNE
ALOS 4.0 03:42:27 10° NNW 03:45:28 17° WNW 03:48:28 10° WSW
Cosmos 1452 Rocket 4.4 03:41:18 10° NW 03:45:42 27° W 03:50:03 10° SSW
Meteor 1-12 Rocket 4.5 03:40:31 10° N 03:46:12 79° E 03:51:55 10° SSE
Cosmos 1869 Rocket 3.7 03:44:05 10° NNW 03:48:16 49° W 03:52:25 10° SSW
SL-16 R/B 4.0 03:45:33 10° SW 03:49:10 16° W 03:52:50 10° NW
Envisat 3.7 03:45:53 10° N 03:50:29 35° WNW 03:55:03 10° SW
Cosmos 1758 3.8 03:47:49 10° N 03:51:41 62° E 03:55:29 10° SSE
SL-14 R/B 3.9 03:47:57 10° S 03:51:52 60° E 03:55:48 10° NNE
Cosmos 2228 Rocket 3.0 03:58:29 10° SSW 04:02:52 76° W 04:07:16 10° N
Cosmos 1674 4.4 04:02:43 10° WSW 04:04:32 14° WNW 04:06:22 10° NW
Meteor 1-22 Rocket 4.2 04:00:42 10° NNW 04:06:07 58° W 04:11:19 10° S
CZ-3 R/B 3.9 03:52:15 10° WSW 04:12:33 34° S 04:19:44 10° SE
